When you browse on this site, cookies collect data to enhance your experience and personalize the content and advertising you see.
Visit our Privacy Policy to learn more. By continuing to use the site, you agree to this use of cookies and data.
  • în România
  • Lista ţărilor
  • Pe 7 zile
  • Temperatura apei
  • Hartă satelitară
  • Meteo pe hartă
  • Widget-uri
  • user-avatar
    Intrare

    Meteo pe oră la Benguela

    Astăzi, 24 Martie, Duminică

    Timp Temperatura Precipitaţii Vânt Presiune Umiditate
    00:00 +29°C° 0 mm 2 m/s 758 mmHg 80%
    01:00 +29°C° 0 mm 2 m/s 758 mmHg 81%
    02:00 +29°C° 0 mm 1 m/s 757 mmHg 81%
    03:00 +29°C° 0 mm 1 m/s 757 mmHg 82%
    04:00 +29°C° 0 mm 1 m/s 757 mmHg 82%
    05:00 +29°C° 0 mm 1 m/s 757 mmHg 81%
    06:00 +29°C° 0 mm 1 m/s 758 mmHg 80%
    07:00 +29°C° 0 mm 1 m/s 758 mmHg 79%
    08:00 +31°C° 0 mm 2 m/s 758 mmHg 72%
    09:00 +34°C° 0 mm 2 m/s 758 mmHg 65%
    10:00 +35°C° 0 mm 2 m/s 758 mmHg 58%
    11:00 +36°C° 0 mm 3 m/s 758 mmHg 55%
    12:00 +39°C° 0 mm 5 m/s 757 mmHg 51%
    13:00 +40°C° 0 mm 6 m/s 756 mmHg 47%
    14:00 +39°C° 0 mm 6 m/s 756 mmHg 52%
    15:00 +37°C° 0 mm 5 m/s 755 mmHg 56%
    16:00 +36°C° 0 mm 5 m/s 755 mmHg 61%
    17:00 +34°C° 0 mm 4 m/s 755 mmHg 65%
    18:00 +33°C° 0 mm 3 m/s 756 mmHg 69%
    19:00 +31°C° 0 mm 3 m/s 756 mmHg 74%
    20:00 +30°C° 0 mm 3 m/s 757 mmHg 75%
    21:00 +30°C° 0 mm 2 m/s 757 mmHg 77%
    22:00 +30°C° 0 mm 2 m/s 758 mmHg 79%
    23:00 +29°C° 0 mm 2 m/s 758 mmHg 79%

    Mâine, 25 Martie, Luni

    Timp Temperatura Precipitaţii Vânt Presiune Umiditate
    00:00 +29°C° 0 mm 2 m/s 758 mmHg 80%
    01:00 +29°C° 0 mm 1 m/s 758 mmHg 81%
    02:00 +29°C° 0 mm 1 m/s 757 mmHg 82%
    03:00 +28°C° 0 mm 1 m/s 757 mmHg 83%
    04:00 +28°C° 0 mm 1 m/s 756 mmHg 84%
    05:00 +28°C° 0 mm 1 m/s 757 mmHg 84%
    06:00 +28°C° 0 mm 1 m/s 757 mmHg 83%
    07:00 +27°C° 0 mm 0 m/s 757 mmHg 82%
    08:00 +30°C° 0 mm 1 m/s 757 mmHg 74%
    09:00 +32°C° 0 mm 1 m/s 757 mmHg 66%
    10:00 +35°C° 0 mm 2 m/s 757 mmHg 57%
    11:00 +36°C° 0 mm 3 m/s 757 mmHg 56%
    12:00 +37°C° 0 mm 4 m/s 756 mmHg 56%
    13:00 +37°C° 0 mm 5 m/s 755 mmHg 55%
    14:00 +36°C° 0.5 mm 5 m/s 755 mmHg 59%
    15:00 +35°C° 0.5 mm 5 m/s 754 mmHg 64%
    16:00 +34°C° 0.5 mm 4 m/s 754 mmHg 68%
    17:00 +31°C° 0.3 mm 3 m/s 755 mmHg 72%
    18:00 +30°C° 0.3 mm 3 m/s 755 mmHg 75%
    19:00 +29°C° 0.3 mm 2 m/s 756 mmHg 78%
    20:00 +29°C° 0.5 mm 1 m/s 756 mmHg 80%
    21:00 +29°C° 0.5 mm 1 m/s 757 mmHg 81%
    22:00 +26°C° 0.5 mm 0 m/s 758 mmHg 82%
    23:00 +26°C° 0.3 mm 0 m/s 758 mmHg 83%

    Poimâine, 26 Martie, Marţi

    Timp Temperatura Precipitaţii Vânt Presiune Umiditate
    00:00 +26°C° 0.3 mm 0 m/s 758 mmHg 84%
    01:00 +26°C° 0.3 mm 0 m/s 758 mmHg 85%
    02:00 +26°C° 0 mm 0 m/s 757 mmHg 86%
    03:00 +26°C° 0 mm 0 m/s 757 mmHg 87%
    04:00 +25°C° 0 mm 0 m/s 757 mmHg 87%
    05:00 +26°C° 0 mm 0 m/s 757 mmHg 86%
    06:00 +28°C° 0 mm 1 m/s 758 mmHg 84%
    07:00 +28°C° 0 mm 1 m/s 758 mmHg 83%
    08:00 +29°C° 0 mm 1 m/s 759 mmHg 77%
    09:00 +31°C° 0 mm 2 m/s 759 mmHg 71%
    10:00 +32°C° 0 mm 2 m/s 759 mmHg 66%
    11:00 +33°C° 0 mm 3 m/s 759 mmHg 64%
    12:00 +34°C° 0 mm 3 m/s 758 mmHg 62%
    13:00 +35°C° 0 mm 4 m/s 758 mmHg 60%
    14:00 +34°C° 0 mm 4 m/s 757 mmHg 61%
    15:00 +34°C° 0 mm 3 m/s 757 mmHg 63%
    16:00 +33°C° 0 mm 3 m/s 757 mmHg 64%
    17:00 +31°C° 0 mm 2 m/s 757 mmHg 68%
    18:00 +31°C° 0 mm 2 m/s 758 mmHg 72%
    19:00 +30°C° 0 mm 1 m/s 758 mmHg 76%
    20:00 +30°C° 0 mm 1 m/s 759 mmHg 76%
    21:00 +27°C° 0 mm 0 m/s 759 mmHg 77%
    22:00 +27°C° 0 mm 0 m/s 760 mmHg 78%
    23:00 +27°C° 0 mm 0 m/s 759 mmHg 78%

    27 Martie, Miercuri

    Timp Temperatura Precipitaţii Vânt Presiune Umiditate
    00:00 +27°C° 0 mm 0 m/s 759 mmHg 78%
    01:00 +29°C° 0 mm 1 m/s 759 mmHg 79%
    02:00 +29°C° 0 mm 1 m/s 758 mmHg 79%
    03:00 +29°C° 0 mm 1 m/s 758 mmHg 79%
    04:00 +29°C° 0 mm 1 m/s 758 mmHg 80%
    05:00 +29°C° 0 mm 1 m/s 758 mmHg 78%
    06:00 +29°C° 0 mm 2 m/s 758 mmHg 77%
    07:00 +29°C° 0 mm 2 m/s 759 mmHg 76%
    08:00 +31°C° 0 mm 1 m/s 759 mmHg 70%
    09:00 +32°C° 0 mm 1 m/s 759 mmHg 64%
    10:00 +33°C° 0 mm 1 m/s 759 mmHg 58%
    11:00 +35°C° 0 mm 2 m/s 759 mmHg 58%
    12:00 +35°C° 0 mm 3 m/s 758 mmHg 57%
    13:00 +35°C° 0 mm 4 m/s 757 mmHg 57%
    14:00 +35°C° 0 mm 4 m/s 757 mmHg 60%
    15:00 +34°C° 0 mm 4 m/s 757 mmHg 63%
    16:00 +33°C° 0 mm 4 m/s 756 mmHg 66%
    17:00 +33°C° 0 mm 3 m/s 757 mmHg 70%
    18:00 +31°C° 0 mm 3 m/s 758 mmHg 74%
    19:00 +30°C° 0 mm 2 m/s 758 mmHg 77%
    20:00 +30°C° 0 mm 2 m/s 759 mmHg 78%
    21:00 +29°C° 0 mm 2 m/s 759 mmHg 80%
    22:00 +29°C° 0 mm 2 m/s 760 mmHg 81%
    23:00 +29°C° 0 mm 2 m/s 760 mmHg 81%

    28 Martie, Joi

    Timp Temperatura Precipitaţii Vânt Presiune Umiditate
    00:00 +29°C° 0 mm 2 m/s 759 mmHg 80%
    01:00 +29°C° 0 mm 2 m/s 759 mmHg 80%
    02:00 +29°C° 0 mm 2 m/s 758 mmHg 79%
    03:00 +29°C° 0 mm 2 m/s 758 mmHg 79%
    04:00 +29°C° 0 mm 2 m/s 757 mmHg 78%
    05:00 +29°C° 0 mm 2 m/s 758 mmHg 76%
    06:00 +29°C° 0 mm 2 m/s 758 mmHg 74%
    07:00 +30°C° 0 mm 2 m/s 759 mmHg 73%
    08:00 +32°C° 0 mm 2 m/s 759 mmHg 65%
    09:00 +34°C° 0 mm 1 m/s 759 mmHg 57%
    10:00 +36°C° 0 mm 1 m/s 759 mmHg 49%
    11:00 +38°C° 0 mm 2 m/s 758 mmHg 47%
    12:00 +38°C° 0 mm 3 m/s 757 mmHg 44%
    13:00 +40°C° 0 mm 4 m/s 756 mmHg 42%
    14:00 +38°C° 0 mm 4 m/s 756 mmHg 47%
    15:00 +37°C° 0 mm 4 m/s 756 mmHg 52%
    16:00 +36°C° 0 mm 4 m/s 755 mmHg 57%
    17:00 +35°C° 0 mm 3 m/s 756 mmHg 61%
    18:00 +34°C° 0 mm 2 m/s 757 mmHg 66%
    19:00 +31°C° 0 mm 1 m/s 758 mmHg 70%
    20:00 +31°C° 0 mm 1 m/s 758 mmHg 71%
    21:00 +31°C° 0 mm 1 m/s 759 mmHg 72%
    22:00 +30°C° 0 mm 1 m/s 759 mmHg 74%
    23:00 +30°C° 0 mm 1 m/s 759 mmHg 74%

    29 Martie, Vineri

    Timp Temperatura Precipitaţii Vânt Presiune Umiditate
    00:00 +30°C° 0 mm 1 m/s 759 mmHg 75%
    01:00 +30°C° 0 mm 1 m/s 758 mmHg 75%
    02:00 +30°C° 0 mm 1 m/s 758 mmHg 76%
    03:00 +29°C° 0 mm 2 m/s 758 mmHg 76%
    04:00 +29°C° 0 mm 2 m/s 757 mmHg 76%
    05:00 +30°C° 0 mm 2 m/s 758 mmHg 74%
    06:00 +30°C° 0 mm 2 m/s 758 mmHg 73%
    07:00 +30°C° 0 mm 1 m/s 759 mmHg 72%
    08:00 +32°C° 0 mm 1 m/s 759 mmHg 63%
    09:00 +34°C° 0 mm 1 m/s 758 mmHg 55%
    10:00 +34°C° 0 mm 0 m/s 758 mmHg 47%
    11:00 +38°C° 0 mm 2 m/s 757 mmHg 45%
    12:00 +39°C° 0 mm 3 m/s 757 mmHg 42%
    13:00 +41°C° 0 mm 4 m/s 756 mmHg 40%
    14:00 +40°C° 0 mm 5 m/s 755 mmHg 45%
    15:00 +39°C° 0 mm 5 m/s 755 mmHg 50%
    16:00 +37°C° 0 mm 5 m/s 755 mmHg 55%
    17:00 +35°C° 0 mm 4 m/s 756 mmHg 60%
    18:00 +34°C° 0 mm 3 m/s 756 mmHg 64%
    19:00 +32°C° 0 mm 2 m/s 757 mmHg 69%
    20:00 +32°C° 0.1 mm 2 m/s 757 mmHg 71%
    21:00 +31°C° 0.1 mm 2 m/s 758 mmHg 73%
    22:00 +31°C° 0.1 mm 1 m/s 758 mmHg 75%
    23:00 +31°C° 0 mm 2 m/s 758 mmHg 75%
    Arată mai mult